Weather History for Alma, MI

Change the Weather History Date:

Thursday, March 27, 2014

  Actual Average Record
Temperature  
Mean Temperature 34 °F -  
Max Temperature 38 °F 48 °F 75 °F (1998)
Min Temperature 30 °F 26 °F 4 °F (1965)
Degree Days  
Heating Degree Days 31    
Moisture  
Dew Point 27 °F    
Average Humidity 79    
Maximum Humidity 97    
Minimum Humidity 55    
Precipitation  
Precipitation 0.00 in - - ()
Sea Level Pressure  
Sea Level Pressure 29.87 in    
Wind  
Wind Speed 8 mph (SSE)    
Max Wind Speed 15 mph    
Max Gust Speed 21 mph    
Visibility 7 miles    
Events Rain , Snow    
Averages and records for this station are not official NWS values.
T = Trace of Precipitation, MM = Missing Value Source: NWS Daily Summary

Daily Weather History Graph

Daily Weather History Graph

Search for Another Location

Airport:

Trip Planner

Search our weather history database for the weather conditions in past years. The results will help you decide how hot, cold, wet, or windy it might be!

Date:

Astronomy

Mar. 27, 2014 Rise Set
Actual Time 7:29 AM EDT 7:59 PM EDT
Civil Twilight 7:00 AM EDT 8:28 PM EDT
Nautical Twilight 6:27 AM EDT 9:01 PM EDT
Astronomical Twilight 5:52 AM EDT 9:36 PM EDT
Moon 5:25 AM EDT (3/27) 4:41 PM EDT (3/27)
Length of Visible Light 13h 27m
Length of Day
12h 29m
Waning Crescent, 13% of the Moon is Illuminated
Mar 27
Waning Crescent
Mar 30
New
Apr 7
First Quarter
Apr 15
Full
Apr 22
Last Quarter

Hourly Weather History & Observations

Time (EDT) Temp. Windchill Dew Point Humidity Pressure Visibility Wind Dir Wind Speed Gust Speed Precip Events Conditions
12:12 AM 30.0 °F 21.7 °F 17.2 °F 59% 30.10 in 10.0 mi SSE 9.2 mph - N/A   Overcast
12:32 AM 30.0 °F 21.7 °F 18.3 °F 62% 30.08 in 10.0 mi SE 9.2 mph - N/A   Overcast
12:52 AM 30.0 °F 23.2 °F 19.2 °F 64% 30.07 in 10.0 mi SSE 6.9 mph - N/A   Overcast
1:12 AM 30.2 °F 23.4 °F 18.7 °F 62% 30.06 in 10.0 mi SSE 6.9 mph - N/A   Overcast
1:32 AM 30.6 °F 24.7 °F 18.3 °F 60% 30.08 in 10.0 mi South 5.8 mph - N/A   Overcast
1:52 AM 30.9 °F 25.2 °F 18.9 °F 61% 30.08 in 10.0 mi South 5.8 mph - N/A   Overcast
2:12 AM 30.9 °F 25.2 °F 19.2 °F 62% 30.08 in 10.0 mi South 5.8 mph - N/A   Overcast
2:32 AM 30.9 °F 27.5 °F 19.4 °F 62% 30.08 in 10.0 mi South 3.5 mph - N/A   Overcast
2:52 AM 30.9 °F 26.2 °F 20.1 °F 64% 30.07 in 10.0 mi South 4.6 mph - N/A   Overcast
3:12 AM 31.1 °F 25.4 °F 20.1 °F 64% 30.06 in 10.0 mi South 5.8 mph - N/A   Overcast
3:33 AM 31.8 °F 26.2 °F 19.2 °F 60% 30.05 in 10.0 mi SSE 5.8 mph - N/A   Overcast
3:53 AM 31.5 °F 24.9 °F 20.8 °F 65% 30.04 in 10.0 mi SE 6.9 mph - N/A   Overcast
4:13 AM 31.1 °F 23.7 °F 20.7 °F 65% 30.03 in 10.0 mi SE 8.1 mph - N/A   Overcast
4:33 AM 31.3 °F 23.9 °F 20.1 °F 63% 30.02 in 10.0 mi SE 8.1 mph - N/A   Overcast
4:53 AM 31.3 °F 25.6 °F 19.9 °F 63% 30.01 in 10.0 mi SE 5.8 mph - N/A   Overcast
5:13 AM 31.5 °F 24.9 °F 20.1 °F 63% 30.01 in 10.0 mi SE 6.9 mph - N/A   Overcast
5:33 AM 31.5 °F 25.8 °F 20.5 °F 64% 29.99 in 10.0 mi SSE 5.8 mph - N/A   Overcast
5:53 AM 31.5 °F 24.9 °F 20.7 °F 64% 29.99 in 10.0 mi SSE 6.9 mph - N/A   Overcast
6:13 AM 31.3 °F 26.6 °F 20.8 °F 65% 29.99 in 10.0 mi SSE 4.6 mph - N/A   Overcast
6:34 AM 31.6 °F 27.0 °F 20.7 °F 64% 29.98 in 10.0 mi SSE 4.6 mph - N/A   Overcast
6:54 AM 31.5 °F 24.9 °F 21.6 °F 67% 29.97 in 10.0 mi SSE 6.9 mph - N/A   Overcast
7:14 AM 31.6 °F 25.1 °F 21.2 °F 65% 29.96 in 10.0 mi SSE 6.9 mph - N/A   Overcast
7:34 AM 32.0 °F 25.6 °F 19.4 °F 60% 29.96 in 10.0 mi SSE 6.9 mph - N/A   Overcast
7:54 AM 32.0 °F 24.8 °F 19.6 °F 60% 29.96 in 10.0 mi South 8.1 mph - N/A   Mostly Cloudy
8:14 AM 32.9 °F 25.9 °F 18.9 °F 56% 29.96 in 10.0 mi South 8.1 mph - N/A   Overcast
8:34 AM 33.4 °F 25.4 °F 18.9 °F 55% 29.96 in 10.0 mi South 10.4 mph - N/A   Overcast
8:54 AM 32.9 °F 23.7 °F 21.2 °F 62% 29.96 in 7.0 mi South 12.7 mph 20.7 mph N/A Rain Rain
9:15 AM 32.9 °F 23.7 °F 22.8 °F 66% 29.95 in 7.0 mi South 12.7 mph 18.4 mph N/A Snow Light Snow
9:35 AM 32.7 °F 25.0 °F 23.9 °F 70% 29.94 in 5.0 mi South 9.2 mph 18.4 mph N/A Snow Light Snow
9:55 AM 33.1 °F 24.9 °F 24.3 °F 70% 29.94 in 10.0 mi South 10.4 mph 16.1 mph N/A   Overcast
10:15 AM 32.9 °F 23.7 °F 26.1 °F 76% 29.94 in 7.0 mi South 12.7 mph 17.3 mph N/A Snow Light Snow
10:35 AM 32.9 °F 24.1 °F 27.5 °F 81% 29.94 in 5.0 mi South 11.5 mph 16.1 mph N/A Snow Light Snow
10:55 AM 32.9 °F 24.1 °F 28.2 °F 83% 29.93 in 3.0 mi South 11.5 mph 17.3 mph N/A Snow Light Snow
11:15 AM 32.9 °F 24.7 °F 29.1 °F 86% 29.92 in 3.0 mi South 10.4 mph - N/A Snow Light Snow
11:35 AM 32.5 °F 23.7 °F 30.0 °F 90% 29.92 in 2.0 mi South 11.5 mph 16.1 mph N/A Snow Light Snow
11:50 AM 32.4 °F 22.1 °F 30.2 °F 92% 29.91 in 1.8 mi South 15.0 mph 18.4 mph N/A Snow Light Snow
12:11 PM 32.4 °F 22.5 °F 31.1 °F 95% 29.90 in 1.5 mi South 13.8 mph 17.3 mph N/A Snow Light Snow
12:31 PM 32.7 °F 23.4 °F 31.5 °F 95% 29.89 in 2.0 mi South 12.7 mph - N/A Snow Light Snow
12:51 PM 32.9 °F 24.7 °F 31.6 °F 95% 29.89 in 3.0 mi South 10.4 mph 17.3 mph N/A Snow Light Snow
1:11 PM 33.4 °F 25.4 °F 32.0 °F 94% 29.88 in 5.0 mi South 10.4 mph 17.3 mph N/A Snow Light Snow
1:31 PM 33.8 °F 25.3 °F 32.0 °F 93% 29.86 in 5.0 mi South 11.5 mph 17.3 mph N/A   Overcast
1:51 PM 34.0 °F 25.5 °F 32.0 °F 92% 29.85 in 5.0 mi South 11.5 mph - N/A   Overcast
2:11 PM 34.2 °F 26.8 °F 32.0 °F 92% 29.84 in 4.0 mi South 9.2 mph - N/A Snow Light Snow
2:31 PM 34.3 °F 27.7 °F 32.4 °F 92% 29.82 in 5.0 mi South 8.1 mph - N/A   Overcast
2:51 PM 35.1 °F 27.4 °F 32.2 °F 89% 29.81 in 7.0 mi South 10.4 mph - N/A   Overcast
3:12 PM 35.6 °F 29.9 °F 32.2 °F 87% 29.79 in 10.0 mi South 6.9 mph - N/A   Overcast
3:32 PM 36.1 °F 29.9 °F 32.0 °F 85% 29.79 in 10.0 mi South 8.1 mph - N/A   Overcast
3:52 PM 36.5 °F 30.3 °F 32.0 °F 84% 29.78 in 10.0 mi South 8.1 mph - N/A   Overcast
4:12 PM 36.9 °F 30.1 °F 32.0 °F 83% 29.77 in 10.0 mi South 9.2 mph - N/A   Overcast
4:32 PM 37.4 °F 31.4 °F 32.2 °F 81% 29.77 in 10.0 mi South 8.1 mph - N/A   Overcast
4:52 PM 37.4 °F 30.8 °F 32.5 °F 83% 29.76 in 10.0 mi South 9.2 mph - N/A   Overcast
5:12 PM 37.8 °F 31.3 °F 32.9 °F 83% 29.75 in 10.0 mi South 9.2 mph - N/A   Overcast
5:32 PM 37.8 °F 31.8 °F 32.9 °F 83% 29.74 in 10.0 mi South 8.1 mph - N/A   Overcast
5:53 PM 37.6 °F 31.6 °F 33.1 °F 84% 29.74 in 7.0 mi South 8.1 mph - N/A   Overcast
6:13 PM 37.2 °F 29.6 °F 33.8 °F 87% 29.73 in 4.0 mi South 11.5 mph 16.1 mph N/A Rain Light Rain
6:33 PM 36.3 °F 31.6 °F 34.2 °F 92% 29.72 in 2.5 mi South 5.8 mph - N/A Rain Light Rain
6:53 PM 35.8 °F 30.1 °F 34.2 °F 94% 29.70 in 5.0 mi SE 6.9 mph - N/A Rain Light Rain
7:13 PM 36.5 °F - 34.3 °F 92% 29.70 in 5.0 mi North - - N/A Rain Light Rain
7:33 PM 36.0 °F 31.1 °F 34.0 °F 93% 29.70 in 5.0 mi SSE 5.8 mph - N/A   Light Drizzle
7:53 PM 36.0 °F 31.1 °F 34.0 °F 93% 29.69 in 5.0 mi SSE 5.8 mph - N/A   Overcast
8:13 PM 35.6 °F 32.8 °F 33.8 °F 93% 29.69 in 7.0 mi SSE 3.5 mph - N/A Rain Light Rain
8:34 PM 36.0 °F 31.1 °F 34.2 °F 93% 29.68 in 4.0 mi SSE 5.8 mph - N/A Rain Light Rain
8:54 PM 35.6 °F 29.9 °F 34.3 °F 95% 29.67 in 2.5 mi SE 6.9 mph - N/A Snow Light Snow
9:14 PM 35.6 °F 29.9 °F 34.5 °F 96% 29.66 in 2.0 mi SSE 6.9 mph - N/A Snow Light Snow
9:34 PM 35.6 °F 29.9 °F 34.7 °F 97% 29.65 in 2.5 mi SSE 6.9 mph - N/A Rain Light Rain
9:54 PM 35.8 °F 29.4 °F 34.9 °F 97% 29.63 in 2.5 mi SE 8.1 mph - N/A Rain Light Rain
10:14 PM 36.1 °F 31.4 °F 35.2 °F 97% 29.61 in 4.0 mi SSE 5.8 mph - N/A   Overcast
10:34 PM 35.6 °F 30.7 °F 34.7 °F 97% 29.61 in 4.0 mi SSE 5.8 mph - N/A   Overcast
10:54 PM 36.3 °F 28.9 °F 35.2 °F 96% 29.60 in 4.0 mi SSE 10.4 mph - N/A Rain Light Rain
11:14 PM 37.6 °F 30.5 °F 35.6 °F 93% 29.59 in 4.0 mi South 10.4 mph - N/A Rain Light Rain
11:35 PM 38.5 °F 31.1 °F 36.5 °F 93% 29.58 in 7.0 mi South 11.5 mph - N/A   Light Drizzle
11:55 PM 38.3 °F 32.5 °F 36.5 °F 93% 29.57 in 4.0 mi South 8.1 mph - N/A   Overcast